KAZSAT 3

导读 | 星芒AI

KAZSAT 3 是哈萨克斯坦的第三代通信卫星,由法国泰雷兹阿莱尼亚宇航公司制造,于2017年发射。该卫星位于东经107.8度轨道位置,提供广播、宽带互联网和VSAT服务,覆盖中亚、欧洲和亚洲部分地区。KAZSAT 3 采用先进技术,具备高传输能力和灵活性,增强了哈萨克斯坦在区域通信市场的竞争力,并支持国家数字化和经济发展战略。

基本信息
目录编号:
39728
目录名称:
KAZSAT 3
国际标识:
2014-023B
轨道中心:
EARTH
卫星名称:
KAZSAT 3
卫星全名:
--
卫星状态:
在轨 (已飞行4205 天)
发射日期:
2014-04-28 UTC
国别 :
(KZ)
星等 :
--
轨道信息
数据来源 国际轨道数据 AOE轨道数据
星历时间 2025-11-01T02:22:58+0800
1天前
查看轨道信息
2025-11-01T07:00:00+0800
20小时前
查看轨道信息
半长轴 42164.532km 42164.981km
偏心率 0.0000509 0.0000631
轨道倾角 0.022° 0.022°
近地点辐角 287.045° 313.200°
升交点赤经 332.074° 344.976°
平近点角 115.458° 145.853°
近地点 35784.25km 35784.185km
远地点 35788.544km 35789.507km
周期 1436.087分钟 1436.110分钟
每日圈数 1.002725 1.002709
详细信息
使用方式:
暂无
2D轨道图
3D轨道图
轨道高度分析图
轨道倾角分析图
轨道综合分析图
查看轨道综合分析图